Location: Hall+in+Tirol
(47.2830°N, 11.5170°E)
Time: 07:45:11
(UTC+01:00)

Amateur Radio Satellites - All Passes

Search period start: 10 February 2016 07:15
Search period end: 11 February 2016 07:15
Location: Hall+in+Tirol, 47.2830°N, 11.5170°E

Satellite Date Start Highest point End Downlink Frequencies (MHz)
Time Altitude Azimuth
DOVE 4 10 Feb 07:20:34 07:24:12 27° 94° (E) 07:27:45 437.250
CUTE-I 10 Feb 07:24:39 07:29:51 51° 291° (WNW) 07:35:02 437.470
Cubesat XI-IV 10 Feb 07:38:31 07:43:32 40° 294° (WNW) 07:48:30 437.490
GOMX 1 10 Feb 07:38:51 07:43:24 81° 103° (ESE) 07:47:39 467.674
CANX-2 10 Feb 07:40:14 07:43:33 21° 92° (E) 07:46:52 2200.000
Cosmos 2499 10 Feb 07:46:10 07:47:25 10° 67° (ENE) 07:48:41 435.465 / 435.565
PRISM 10 Feb 07:50:24 07:54:18 39° 262° (W) 07:58:16 437.425
O/OREOS (USA 219) 10 Feb 07:55:41 07:59:56 44° 108° (ESE) 08:04:15 437.305
BRITE-PL 10 Feb 08:11:33 08:15:42 29° 296° (WNW) 08:19:36 437.365/2234.400
GONETS M04 10 Feb 08:14:22 08:22:08 39° 85° (E) 08:29:56
CINEMA 3 10 Feb 08:14:47 08:18:36 34° 97° (E) 08:22:24 145.822/145.860
CUBEBUG 2 10 Feb 08:22:26 08:25:04 16° 91° (E) 08:27:43 437.445
COMPASS 1 10 Feb 08:22:42 08:26:26 29° 95° (E) 08:30:08 437.405
Cosmos 2504 10 Feb 08:23:25 08:26:53 13° 314° (NW) 08:30:23 435.465 / 435.565
UWE-3 10 Feb 08:23:56 08:25:39 12° 89° (E) 08:27:22 435.000/436.395/437.385
Oscar 11 10 Feb 08:24:10 08:25:38 11° 87° (E) 08:27:05 145.826/435.025
CUTE 1.7 + AOD 2 10 Feb 08:30:15 08:34:31 61° 102° (ESE) 08:38:45 437.475
HO-68 10 Feb 08:35:20 08:42:31 65° 103° (ESE) 08:49:39 435.675
SEEDS 10 Feb 08:36:36 08:40:48 55° 100° (E) 08:45:00 437.485
SO-50 10 Feb 08:37:56 08:39:59 12° 345° (NNW) 08:42:01 436.795
UNISAT 6 10 Feb 08:43:16 08:46:33 22° 64° (ENE) 08:49:49 437.425
AAUSAT CUBESAT 2 10 Feb 08:51:06 08:55:12 48° 99° (E) 08:59:16 437.432
DOVE 4 10 Feb 08:58:11 09:01:59 31° 293° (WNW) 09:05:39 437.250
CANX-2 10 Feb 09:15:33 09:19:35 41° 290° (WNW) 09:23:37 2200.000
ZACube-1 10 Feb 09:16:21 09:20:05 30° 96° (E) 09:23:51 437.345
GOMX 1 10 Feb 09:18:41 09:20:48 13° 303° (WNW) 09:22:51 467.674
FUNcube-1 10 Feb 09:25:17 09:29:10 35° 97° (E) 09:33:05 145.935
POPSAT HIP 1 10 Feb 09:26:36 09:29:13 16° 61° (ENE) 09:31:50 437.405
ANTELSAT 10 Feb 09:27:10 09:31:23 56° 72° (ENE) 09:35:34 437.575/2403.000
Cosmos 2499 10 Feb 09:30:00 09:38:20 51° 89° (E) 09:46:49 435.465 / 435.565
NANOSAT C BR1 10 Feb 09:31:02 09:33:50 17° 62° (ENE) 09:36:37 145.865
DUCHIFAT 1 10 Feb 09:32:28 09:35:14 17° 62° (ENE) 09:38:00 145.980
TIGRISAT 10 Feb 09:33:59 09:38:14 63° 73° (ENE) 09:42:28 435.000
HUMSAT D 10 Feb 09:35:27 09:37:57 15° 90° (E) 09:40:27 437.325/437.525
O/OREOS (USA 219) 10 Feb 09:35:50 09:39:33 25° 308° (NW) 09:43:18 437.305
QB50P1 10 Feb 09:38:34 09:41:44 21° 64° (ENE) 09:44:56 145.935-145.965
CINEMA 3 10 Feb 09:52:16 09:55:38 24° 295° (WNW) 09:59:00 145.822/145.860
Oscar 11 10 Feb 09:57:58 10:02:20 80° 285° (WNW) 10:06:41 145.826/435.025
CUBEBUG 2 10 Feb 09:57:58 10:02:02 52° 288° (WNW) 10:06:09 437.445
AIST 1 10 Feb 09:58:10 10:01:40 23° 88° (E) 10:05:11
COMPASS 1 10 Feb 09:58:18 10:01:58 29° 293° (WNW) 10:05:38 437.405
UWE-3 10 Feb 09:58:25 10:02:36 71° 286° (WNW) 10:06:51 435.000/436.395/437.385
DELFI C3 10 Feb 10:04:27 10:08:30 70° 103° (ESE) 10:12:32 145.870
CUTE 1.7 + AOD 2 10 Feb 10:07:15 10:09:55 16° 299° (WNW) 10:12:34 437.475
GONETS M04 10 Feb 10:10:14 10:18:41 54° 287° (WNW) 10:27:14
AO-85 10 Feb 10:12:52 10:17:50 39° 117° (ESE) 10:22:57 145.980
SEEDS 10 Feb 10:13:18 10:16:08 18° 298° (WNW) 10:18:59 437.485
PCSat 10 Feb 10:18:14 10:22:44 27° 110° (ESE) 10:27:16 145.827
UNISAT 6 10 Feb 10:18:56 10:23:03 42° 262° (W) 10:27:08 437.425
SO-50 10 Feb 10:21:16 10:22:43 11° 10° (N) 10:24:09 436.795
HO-68 10 Feb 10:23:39 10:29:47 31° 303° (WNW) 10:35:54 435.675
AAUSAT CUBESAT 2 10 Feb 10:27:24 10:30:23 19° 297° (WNW) 10:33:22 437.432
POLYITAN 1 10 Feb 10:29:58 10:34:10 68° 74° (ENE) 10:38:23 437.675
QB50P2 10 Feb 10:30:36 10:34:49 71° 73° (ENE) 10:39:03 145.880/145.840
BUGSAT 1 10 Feb 10:32:20 10:36:11 36° 69° (ENE) 10:40:00 437.445
JAS-2 10 Feb 10:41:35 10:44:20 13° 48° (NE) 10:46:59 435.910
ZACube-1 10 Feb 10:52:43 10:56:21 28° 293° (WNW) 11:00:00 437.345
RS-15 10 Feb 10:54:45 11:04:45 41° 108° (ESE) 11:15:12 29.354- 29.394
POPSAT HIP 1 10 Feb 11:00:24 11:04:35 60° 259° (W) 11:08:47 437.405
FUNcube-1 10 Feb 11:01:52 11:05:18 25° 294° (WNW) 11:08:45 145.935
Oscar 19 10 Feb 11:04:19 11:07:02 14° 55° (NE) 11:09:45 437.125/150
VELOX 1 10 Feb 11:04:58 11:08:43 26° 95° (E) 11:12:26 145.980
NANOSAT C BR1 10 Feb 11:05:03 11:09:12 54° 260° (W) 11:13:22 145.865
ANTELSAT 10 Feb 11:05:53 11:08:29 16° 270° (W) 11:11:05 437.575/2403.000
DUCHIFAT 1 10 Feb 11:06:25 11:10:34 55° 259° (W) 11:14:43 145.980
HUMSAT D 10 Feb 11:09:51 11:13:57 55° 287° (WNW) 11:18:03 437.325/437.525
TIGRISAT 10 Feb 11:13:06 11:15:23 14° 271° (W) 11:17:38 435.000
QB50P1 10 Feb 11:13:14 11:17:17 43° 261° (W) 11:21:20 145.935-145.965
AISAT 10 Feb 11:21:24 11:25:35 40° 98° (E) 11:29:42 437.250
Cosmos 2499 10 Feb 11:23:23 11:31:39 44° 291° (WNW) 11:40:03 435.465 / 435.565
UKube-1 10 Feb 11:33:20 11:37:30 45° 99° (E) 11:41:39 .
AIST 1 10 Feb 11:35:00 11:39:04 36° 286° (WNW) 11:43:11
Oscar 11 10 Feb 11:36:44 11:37:43 11° 303° (WNW) 11:38:42 145.826/435.025
CUSAT 1 10 Feb 11:37:14 11:42:23 26° 60° (ENE) 11:46:34 437.405
Gurwin Techsat 1B 10 Feb 11:37:40 11:39:34 12° 52° (NE) 11:41:28 435.225
CUBEBUG 1 10 Feb 11:40:33 11:44:51 51° 100° (E) 11:49:04 437.445
DELFI C3 10 Feb 11:40:56 11:42:54 13° 300° (WNW) 11:44:52 145.870
SPROUT 10 Feb 11:42:53 11:46:09 21° 93° (E) 11:49:24 437.525
ESTCUBE 1 10 Feb 11:43:43 11:48:17 74° 102° (ESE) 11:52:49 437.505/2401.250
DX 1 10 Feb 11:45:34 11:49:57 72° 103° (ESE) 11:54:16 434.975-435.025
50 SAT 10 Feb 11:49:48 11:53:38 80° 285° (WNW) 11:57:26 437.505
AO-7 10 Feb 11:52:04 11:54:38 12° 31° (NNE) 11:57:11 29.400- 29.500
AO-85 10 Feb 11:53:10 11:58:23 45° 317° (NW) 12:03:40 145.980
PCSat 10 Feb 12:00:32 12:05:51 54° 309° (NW) 12:11:12 145.827
SO-50 10 Feb 12:00:57 12:04:58 25° 34° (NE) 12:08:53 436.795
BUGSAT 1 10 Feb 12:08:16 12:11:40 23° 266° (W) 12:15:03 437.445
POLYITAN 1 10 Feb 12:08:29 12:10:28 13° 271° (W) 12:12:26 437.675
QB50P2 10 Feb 12:09:17 12:11:08 12° 271° (W) 12:12:58 145.880/145.840
DANDE 10 Feb 12:11:13 12:17:49 33° 62° (ENE) 12:23:07 436.750
ITAMSAT 1 10 Feb 12:13:56 12:16:20 13° 53° (NE) 12:18:45 435.822/435.867
GONETS M04 10 Feb 12:14:11 12:18:01 13° 313° (NW) 12:21:52
JAS-2 10 Feb 12:20:49 12:28:04 52° 68° (ENE) 12:34:40 435.910
Oscar 19 10 Feb 12:40:24 12:45:36 84° 73° (ENE) 12:50:49 437.125/150
VELOX 1 10 Feb 12:41:14 12:45:17 35° 292° (WNW) 12:49:17 145.980
YUBILEINY 10 Feb 12:54:42 13:02:06 28° 62° (ENE) 13:09:25 435.215
AISAT 10 Feb 12:58:19 13:01:53 24° 296° (WNW) 13:05:25 437.250
RS-15 10 Feb 13:05:12 13:16:26 71° 313° (NW) 13:28:23 29.354- 29.394
UKube-1 10 Feb 13:10:02 13:13:18 21° 297° (WNW) 13:16:33 .
Cosmos 2491 10 Feb 13:10:27 13:13:27 12° 69° (ENE) 13:16:28 435.465 / 435.565
Gurwin Techsat 1B 10 Feb 13:13:17 13:18:33 66° 72° (ENE) 13:23:50 435.225
CUBEBUG 1 10 Feb 13:17:40 13:20:48 19° 298° (WNW) 13:23:53 437.445
SPROUT 10 Feb 13:18:18 13:22:19 41° 290° (WNW) 13:26:19 437.525
CUSAT 1 10 Feb 13:19:17 13:25:13 50° 268° (W) 13:29:42 437.405
ESTCUBE 1 10 Feb 13:21:54 13:24:33 16° 301° (WNW) 13:27:12 437.505/2401.250
DX 1 10 Feb 13:23:10 13:25:36 15° 301° (WNW) 13:28:02 434.975-435.025
Cosmos 2499 10 Feb 13:25:22 13:27:40 11° 316° (NW) 13:30:00 435.465 / 435.565
TISAT 1 10 Feb 13:26:08 13:30:20 86° 285° (WNW) 13:34:30 437.305
SWISSCUBE 10 Feb 13:33:35 13:37:33 25° 94° (E) 13:41:30 437.505
AO-85 10 Feb 13:36:51 13:40:18 17° 339° (NNW) 13:43:43 145.980
AO-7 10 Feb 13:37:36 13:45:03 38° 55° (NE) 13:52:29 29.400- 29.500
SO-50 10 Feb 13:41:08 13:46:00 73° 234° (SW) 13:50:39 436.795
PCSat 10 Feb 13:47:13 13:50:30 16° 332° (NNW) 13:53:47 145.827
ITAMSAT 1 10 Feb 13:49:46 13:54:57 76° 72° (ENE) 14:00:11 435.822/435.867
DANDE 10 Feb 13:54:11 14:01:13 51° 269° (W) 14:06:37 436.750
JAS-2 10 Feb 14:06:15 14:13:12 38° 264° (W) 14:19:39 435.910
ITUPSAT 1 10 Feb 14:10:07 14:14:48 48° 100° (E) 14:19:27 437.325
BEESAT 10 Feb 14:18:21 14:23:06 59° 101° (E) 14:27:50 436.000
Cosmos 2504 10 Feb 14:18:42 14:25:03 22° 56° (NE) 14:31:07 435.465 / 435.565
Oscar 19 10 Feb 14:22:51 14:25:35 14° 272° (W) 14:28:20 437.125/150
HORYU 2 10 Feb 14:45:25 14:48:59 24° 64° (ENE) 14:52:33 437.375
YUBILEINY 10 Feb 14:51:01 14:59:53 77° 264° (W) 15:08:39 435.215
M-CUBED/EXP-1 PRIME 10 Feb 14:54:35 14:58:07 57° 67° (ENE) 15:01:28 437.505
Gurwin Techsat 1B 10 Feb 14:55:15 14:58:59 19° 270° (W) 15:02:44 435.225
Cosmos 2491 10 Feb 14:59:50 15:08:19 60° 91° (E) 15:16:49 435.465 / 435.565
AUBIESAT-1 10 Feb 15:04:04 15:07:35 60° 69° (ENE) 15:10:57 437.475
TISAT 1 10 Feb 15:04:15 15:05:19 11° 303° (WNW) 15:06:23 437.305
SWISSCUBE 10 Feb 15:10:58 15:15:32 43° 292° (WNW) 15:20:03 437.505
ISS 10 Feb 15:17:54 15:19:50 15° 136° (SE) 15:21:46 145.825
RS-15 10 Feb 15:20:57 15:31:22 37° 344° (NNW) 15:42:18 29.354- 29.394
AO-85 10 Feb 15:21:02 15:23:05 12° 3° (N) 15:25:07 145.980
SO-50 10 Feb 15:24:45 15:25:34 10° 254° (WSW) 15:26:23 436.795
AO-7 10 Feb 15:29:09 15:37:26 63° 256° (WSW) 15:45:45 29.400- 29.500
ITAMSAT 1 10 Feb 15:31:52 15:35:01 16° 271° (W) 15:38:11 435.822/435.867
STARS 10 Feb 15:34:57 15:38:48 29° 96° (E) 15:42:37 437.465
CUTE-I 10 Feb 15:35:47 15:36:05 10° 50° (NE) 15:36:24 437.470
Cubesat XI-IV 10 Feb 15:47:25 15:49:43 13° 53° (NE) 15:52:02 437.490
ITUPSAT 1 10 Feb 15:48:32 15:52:22 24° 298° (WNW) 15:56:11 437.325
MOZHAYETS 4 10 Feb 15:48:51 15:53:01 32° 95° (E) 15:57:10
KKS-1 10 Feb 15:52:37 15:57:05 79° 104° (ESE) 16:01:30 437.445
BEESAT 10 Feb 15:57:02 16:00:30 20° 300° (WNW) 16:03:58 436.000
BEESAT 3 10 Feb 16:11:11 16:12:30 11° 109° (ESE) 16:13:49 437.485
Cosmos 2504 10 Feb 16:11:13 16:20:00 83° 80° (E) 16:28:09 435.465 / 435.565
BRITE-PL 10 Feb 16:11:25 16:13:20 12° 54° (NE) 16:15:14 437.365/2234.400
HORYU 2 10 Feb 16:21:13 16:25:22 40° 262° (W) 16:29:33 437.375
O/OREOS (USA 219) 10 Feb 16:23:32 16:27:07 22° 50° (NE) 16:30:41 437.305
M-CUBED/EXP-1 PRIME 10 Feb 16:32:01 16:33:03 11° 263° (W) 16:34:05 437.505
CUBESAT XI-V 10 Feb 16:33:17 16:34:07 10° 85° (E) 16:34:57 437.345
BEESAT 2 10 Feb 16:35:22 16:37:23 14° 111° (ESE) 16:39:25 435.950
AUBIESAT-1 10 Feb 16:41:55 16:42:30 10° 263° (W) 16:43:05 437.475
YUBILEINY 10 Feb 16:49:54 16:55:07 18° 287° (WNW) 17:00:20 435.215
ISS 10 Feb 16:52:36 16:55:51 82° 153° (SSE) 16:59:06 145.825
Cosmos 2491 10 Feb 16:57:51 17:05:39 36° 294° (WNW) 17:13:31 435.465 / 435.565
AO-85 10 Feb 17:01:41 17:05:42 21° 28° (NNE) 17:09:31 145.980
CUTE-I 10 Feb 17:09:50 17:15:00 55° 69° (ENE) 17:20:14 437.470
STARS 10 Feb 17:11:18 17:15:10 31° 294° (WNW) 17:19:01 437.465
GOMX 1 10 Feb 17:12:59 17:16:40 19° 61° (ENE) 17:20:14 467.674
PCSat 10 Feb 17:19:28 17:22:26 14° 25° (NNE) 17:25:23 145.827
HO-68 10 Feb 17:23:12 17:27:25 17° 46° (NE) 17:31:38 435.675
Cubesat XI-IV 10 Feb 17:23:35 17:28:52 71° 72° (ENE) 17:34:13 437.490
MOZHAYETS 4 10 Feb 17:26:03 17:30:10 32° 293° (WNW) 17:34:17
AO-7 10 Feb 17:28:32 17:31:56 13° 277° (W) 17:35:21 29.400- 29.500
KKS-1 10 Feb 17:30:46 17:33:04 14° 302° (WNW) 17:35:21 437.445
RS-15 10 Feb 17:37:08 17:47:59 38° 19° (NNE) 17:59:08 29.354- 29.394
LilacSat-2 10 Feb 17:39:10 17:42:59 82° 76° (ENE) 17:46:49 437.200
BRITE-PL 10 Feb 17:45:14 17:50:50 61° 72° (ENE) 17:56:15 437.365/2234.400
BEESAT 3 10 Feb 17:45:39 17:49:39 84° 308° (NW) 17:53:40 437.485
O/OREOS (USA 219) 10 Feb 18:02:22 18:06:52 55° 250° (WSW) 18:11:21 437.305
Cosmos 2504 10 Feb 18:05:53 18:12:16 24° 283° (WNW) 18:18:23 435.465 / 435.565
CUBESAT XI-V 10 Feb 18:07:30 18:12:15 84° 102° (ESE) 18:16:57 437.345
BEESAT 2 10 Feb 18:10:45 18:14:45 73° 309° (NW) 18:18:48 435.950
GONETS M04 10 Feb 18:19:59 18:26:46 24° 58° (ENE) 18:33:32
DOVE 4 10 Feb 18:28:11 18:32:58 44° 70° (ENE) 18:37:29 437.250
ISS 10 Feb 18:29:26 18:32:31 38° 353° (N) 18:35:36 145.825
AIST 2 10 Feb 18:32:47 18:36:10 24° 115° (ESE) 18:39:33 435.215
CANX-2 10 Feb 18:36:13 18:39:33 23° 65° (ENE) 18:42:55 2200.000
AO-85 10 Feb 18:41:53 18:47:10 74° 50° (NE) 18:52:01 145.980
GOMX 1 10 Feb 18:48:54 18:54:17 72° 258° (WSW) 18:59:25 467.674
CUTE-I 10 Feb 18:51:13 18:55:24 23° 268° (W) 18:59:37 437.470
STRAND 1 10 Feb 18:59:53 19:04:42 38° 97° (E) 19:09:30 437.568
PCSat 10 Feb 19:01:59 19:07:14 47° 49° (NE) 19:12:27 145.827
Cubesat XI-IV 10 Feb 19:05:57 19:09:29 18° 270° (W) 19:13:04 437.490
HO-68 10 Feb 19:06:46 19:13:51 66° 67° (ENE) 19:20:59 435.675
COMPASS 1 10 Feb 19:16:36 19:20:13 30° 68° (ENE) 19:23:54 437.405
Cosmos 2499 10 Feb 19:18:20 19:24:49 23° 58° (ENE) 19:30:56 435.465 / 435.565
CINEMA 3 10 Feb 19:19:05 19:23:29 48° 71° (ENE) 19:27:43 145.822/145.860
Oscar 11 10 Feb 19:21:48 19:24:09 15° 60° (ENE) 19:26:32 145.826/435.025
CUBEBUG 2 10 Feb 19:23:39 19:26:50 21° 64° (ENE) 19:30:00 437.445
UWE-3 10 Feb 19:23:58 19:26:32 16° 62° (ENE) 19:29:04 435.000/436.395/437.385
BRITE-PL 10 Feb 19:25:13 19:29:38 23° 269° (W) 19:33:58 437.365/2234.400
BEESAT 3 10 Feb 19:25:29 19:28:02 16° 328° (NNW) 19:30:35 437.485
CUTE 1.7 + AOD 2 10 Feb 19:25:45 19:29:54 64° 74° (ENE) 19:34:07 437.475
PRISM 10 Feb 19:29:16 19:32:35 22° 94° (E) 19:35:52 437.425
SEEDS 10 Feb 19:31:13 19:35:18 56° 72° (ENE) 19:39:26 437.485
AAUSAT CUBESAT 2 10 Feb 19:44:18 19:48:17 47° 71° (ENE) 19:52:18 437.432
CUBESAT XI-V 10 Feb 19:46:30 19:48:59 14° 302° (WNW) 19:51:28 437.345
RS-15 10 Feb 19:50:39 20:02:48 75° 48° (NE) 20:15:10 29.354- 29.394
BEESAT 2 10 Feb 19:50:59 19:53:22 15° 329° (NNW) 19:55:45 435.950
ISS 10 Feb 20:06:14 20:09:23 45° 13° (NNE) 20:12:31 145.825
DOVE 4 10 Feb 20:06:37 20:10:48 26° 266° (W) 20:14:50 437.250
AIST 2 10 Feb 20:10:26 20:14:27 44° 313° (NW) 20:18:29 435.215
CANX-2 10 Feb 20:11:18 20:15:13 38° 263° (W) 20:19:12 2200.000
ZACube-1 10 Feb 20:15:15 20:19:03 35° 69° (ENE) 20:22:51 437.345
GONETS M04 10 Feb 20:16:04 20:24:55 90° 243° (WSW) 20:33:46
AO-85 10 Feb 20:23:36 20:27:03 19° 251° (WSW) 20:30:20 145.980
FUNcube-1 10 Feb 20:23:52 20:27:47 40° 70° (ENE) 20:31:41 145.935
HUMSAT D 10 Feb 20:30:14 20:32:51 17° 62° (ENE) 20:35:29 437.325/437.525
GOMX 1 10 Feb 20:32:29 20:33:08 10° 275° (W) 20:33:47 467.674
STRAND 1 10 Feb 20:39:14 20:43:48 33° 296° (WNW) 20:48:20 437.568
PCSat 10 Feb 20:45:41 20:50:29 33° 249° (WSW) 20:55:16 145.827
COMPASS 1 10 Feb 20:52:14 20:55:48 28° 265° (W) 20:59:25 437.405
DELFI C3 10 Feb 20:53:32 20:57:27 62° 74° (ENE) 21:01:25 145.870
Oscar 11 10 Feb 20:55:29 20:59:46 71° 259° (WSW) 21:04:06 145.826/435.025
HO-68 10 Feb 20:56:04 21:02:04 28° 267° (W) 21:08:08 435.675
CINEMA 3 10 Feb 20:57:31 21:00:52 20° 268° (W) 21:04:08 145.822/145.860
UWE-3 10 Feb 20:58:24 21:02:36 59° 259° (WSW) 21:06:45 435.000/436.395/437.385
CUBEBUG 2 10 Feb 20:59:09 21:03:15 43° 261° (W) 21:07:17 437.445
CUTE 1.7 + AOD 2 10 Feb 21:04:04 21:06:12 14° 271° (W) 21:08:22 437.475
PRISM 10 Feb 21:04:10 21:08:04 38° 292° (WNW) 21:11:55 437.425
SEEDS 10 Feb 21:08:54 21:11:23 15° 270° (W) 21:13:54 437.485
Cosmos 2499 10 Feb 21:10:44 21:19:18 89° 262° (W) 21:27:09 435.465 / 435.565
DX 1 10 Feb 21:10:49 21:12:40 12° 57° (ENE) 21:14:31 434.975-435.025
ESTCUBE 1 10 Feb 21:12:10 21:14:25 14° 57° (ENE) 21:16:40 437.505/2401.250
AAUSAT CUBESAT 2 10 Feb 21:21:15 21:24:04 18° 269° (W) 21:26:54 437.432
TIGRISAT 10 Feb 21:25:26 21:25:37 10° 87° (E) 21:25:49 435.000
AIST 1 10 Feb 21:38:20 21:42:43 76° 80° (E) 21:47:02
ISS 10 Feb 21:42:44 21:45:53 50° 212° (SSW) 21:49:02 145.825
ZACube-1 10 Feb 21:52:02 21:55:27 24° 266° (W) 21:58:51 437.345
AIST 2 10 Feb 21:52:23 21:54:00 12° 335° (NNW) 21:55:37 435.215
FUNcube-1 10 Feb 22:01:06 22:04:14 20° 268° (W) 22:07:22 145.935
RS-15 10 Feb 22:03:45 22:14:33 40° 252° (WSW) 22:25:29 29.354- 29.394
HUMSAT D 10 Feb 22:04:08 22:08:08 52° 260° (W) 22:12:09 437.325/437.525
VELOX 1 10 Feb 22:05:07 22:09:11 35° 67° (ENE) 22:13:15 145.980
UNISAT 6 10 Feb 22:07:15 22:11:04 29° 96° (E) 22:14:55 437.425
GONETS M04 10 Feb 22:14:25 22:20:31 22° 284° (WNW) 22:26:39
AISAT 10 Feb 22:21:34 22:25:56 53° 71° (ENE) 22:30:18 437.250
UKube-1 10 Feb 22:30:40 22:34:55 58° 72° (ENE) 22:39:12 .
DELFI C3 10 Feb 22:30:58 22:32:48 13° 271° (W) 22:34:37 145.870
50 SAT 10 Feb 22:32:49 22:36:30 78° 77° (ENE) 22:40:15 437.505
CUBEBUG 1 10 Feb 22:39:12 22:43:35 63° 73° (ENE) 22:47:59 437.445
SPROUT 10 Feb 22:39:37 22:43:08 25° 65° (ENE) 22:46:39 437.525
POPSAT HIP 1 10 Feb 22:43:01 22:45:50 17° 91° (E) 22:48:39 437.405
DX 1 10 Feb 22:43:48 22:48:12 89° 242° (WSW) 22:52:38 434.975-435.025
ESTCUBE 1 10 Feb 22:46:03 22:50:35 85° 255° (WSW) 22:55:11 437.505/2401.250
NANOSAT C BR1 10 Feb 22:47:09 22:50:08 19° 92° (E) 22:53:06 145.865
TISAT 1 10 Feb 22:47:44 22:49:42 13° 59° (ENE) 22:51:40 437.305
DUCHIFAT 1 10 Feb 22:48:18 22:51:13 18° 92° (E) 22:54:09 145.980
ANTELSAT 10 Feb 22:51:57 22:56:18 83° 104° (ESE) 23:00:43 437.575/2403.000
QB50P1 10 Feb 22:55:10 22:58:34 23° 94° (E) 23:01:56 145.935-145.965
TIGRISAT 10 Feb 22:58:36 23:02:56 89° 289° (WNW) 23:07:20 435.000
Cosmos 2499 10 Feb 23:05:27 23:11:06 20° 285° (WNW) 23:16:31 435.465 / 435.565
AIST 1 10 Feb 23:18:14 23:19:38 11° 278° (W) 23:21:03
VELOX 1 10 Feb 23:41:55 23:45:43 27° 265° (W) 23:49:33 145.980
UNISAT 6 10 Feb 23:43:58 23:47:47 31° 293° (WNW) 23:51:39 437.425
ITUPSAT 1 10 Feb 23:45:33 23:47:29 12° 55° (NE) 23:49:26 437.325
BUGSAT 1 10 Feb 23:46:13 23:50:00 38° 98° (E) 23:53:45 437.445
POLYITAN 1 10 Feb 23:47:32 23:51:46 82° 105° (ESE) 23:55:58 437.675
QB50P2 10 Feb 23:48:09 23:52:23 86° 99° (E) 23:56:36 145.880/145.840
BEESAT 10 Feb 23:52:47 23:55:21 15° 57° (ENE) 23:57:54 436.000
AISAT 10 Feb 23:59:39 00:02:44 18° 269° (W) 00:05:51 437.250
UKube-1 11 Feb 00:08:42 00:11:21 16° 269° (W) 00:14:02 .
SPROUT 11 Feb 00:14:59 00:18:58 36° 263° (W) 00:22:58 437.525
CUBEBUG 1 11 Feb 00:17:43 00:20:18 15° 270° (W) 00:22:54 437.445
POPSAT HIP 1 11 Feb 00:17:52 00:21:56 49° 289° (WNW) 00:25:59 437.405
TISAT 1 11 Feb 00:20:35 00:24:48 78° 255° (WSW) 00:29:03 437.305
NANOSAT C BR1 11 Feb 00:22:06 00:26:08 45° 290° (WNW) 00:30:08 145.865
DUCHIFAT 1 11 Feb 00:23:11 00:27:12 46° 289° (WNW) 00:31:12 145.980
BEESAT 3 11 Feb 00:23:16 00:26:33 24° 39° (NE) 00:29:48 437.485
ANTELSAT 11 Feb 00:30:29 00:32:27 13° 301° (WNW) 00:34:25 437.575/2403.000
QB50P1 11 Feb 00:30:36 00:34:28 36° 291° (WNW) 00:38:19 145.935-145.965
TIGRISAT 11 Feb 00:37:29 00:38:59 12° 302° (WNW) 00:40:31 435.000
CUSAT 1 11 Feb 00:41:37 00:48:25 31° 86° (E) 00:55:06 437.405
SWISSCUBE 11 Feb 00:42:53 00:47:20 41° 68° (ENE) 00:51:49 437.505
BEESAT 2 11 Feb 00:48:49 00:52:17 27° 40° (NE) 00:55:44 435.950
Oscar 19 11 Feb 00:49:26 00:53:29 23° 92° (E) 00:57:30 437.125/150
Cosmos 2491 11 Feb 01:06:10 01:14:03 36° 66° (ENE) 01:21:56 435.465 / 435.565
JAS-2 11 Feb 01:13:04 01:17:50 27° 91° (E) 01:22:17 435.910
AIST 2 11 Feb 01:13:26 01:15:00 12° 25° (NNE) 01:16:34 435.215
KKS-1 11 Feb 01:19:34 01:21:57 14° 58° (ENE) 01:24:19 437.445
ITUPSAT 1 11 Feb 01:19:46 01:24:33 79° 74° (ENE) 01:29:22 437.325
DANDE 11 Feb 01:21:05 01:28:09 36° 86° (E) 01:35:36 436.750
BUGSAT 1 11 Feb 01:22:06 01:25:12 21° 296° (WNW) 01:28:17 437.445
POLYITAN 1 11 Feb 01:25:15 01:26:59 12° 302° (WNW) 01:28:42 437.675
QB50P2 11 Feb 01:25:59 01:27:34 12° 302° (WNW) 01:29:10 145.880/145.840
Gurwin Techsat 1B 11 Feb 01:27:03 01:30:58 20° 91° (E) 01:34:53 435.225
BEESAT 11 Feb 01:27:42 01:32:28 86° 255° (WSW) 01:37:17 436.000
PHONESAT 2.4 11 Feb 01:48:07 01:50:35 20° 167° (SSE) 01:53:04 2401.200-2431.200
ITAMSAT 1 11 Feb 02:00:09 02:04:05 21° 91° (E) 02:08:01 435.822/435.867
BEESAT 3 11 Feb 02:00:42 02:04:32 49° 239° (WSW) 02:08:21 437.485
YUBILEINY 11 Feb 02:01:04 02:08:01 27° 79° (E) 02:14:59 435.215
SWISSCUBE 11 Feb 02:21:17 02:25:16 26° 266° (W) 02:29:18 437.505
CUSAT 1 11 Feb 02:22:09 02:30:13 70° 284° (WNW) 02:38:06 437.405
BEESAT 2 11 Feb 02:26:33 02:30:20 42° 240° (WSW) 02:34:05 435.950
Oscar 19 11 Feb 02:28:07 02:33:07 52° 290° (WNW) 02:38:04 437.125/150
STARS 11 Feb 02:34:27 02:38:33 39° 68° (ENE) 02:42:38 437.465
AIST 2 11 Feb 02:50:33 02:54:33 44° 46° (NE) 02:58:30 435.215
KKS-1 11 Feb 02:53:28 02:57:56 78° 256° (WSW) 03:02:26 437.445
MOZHAYETS 4 11 Feb 02:53:37 02:57:55 43° 69° (ENE) 03:02:16
JAS-2 11 Feb 02:57:45 03:03:16 46° 294° (WNW) 03:08:19 435.910
ITUPSAT 1 11 Feb 03:00:39 03:03:00 13° 272° (W) 03:05:21 437.325
DANDE 11 Feb 03:02:47 03:10:43 63° 286° (WNW) 03:19:09 436.750
Cosmos 2491 11 Feb 03:02:51 03:11:23 60° 269° (W) 03:19:56 435.465 / 435.565
Cosmos 2504 11 Feb 03:04:21 03:08:34 15° 71° (ENE) 03:12:50 435.465 / 435.565
Gurwin Techsat 1B 11 Feb 03:06:06 03:11:22 62° 289° (WNW) 03:16:36 435.225
BEESAT 11 Feb 03:09:45 03:11:00 11° 273° (W) 03:12:15 436.000
PHONESAT 2.4 11 Feb 03:24:35 03:27:19 24° 184° (S) 03:30:02 2401.200-2431.200
AO-7 11 Feb 03:27:15 03:34:54 38° 97° (E) 03:42:29 29.400- 29.500
CUBESAT XI-V 11 Feb 03:38:32 03:41:28 17° 59° (ENE) 03:44:24 437.345
ITAMSAT 1 11 Feb 03:38:48 03:43:57 59° 290° (WNW) 03:49:05 435.822/435.867
YUBILEINY 11 Feb 03:55:08 04:03:56 75° 281° (W) 04:12:50 435.215
SO-50 11 Feb 03:59:22 04:02:44 19° 111° (ESE) 04:06:07 436.795
M-CUBED/EXP-1 PRIME 11 Feb 04:05:37 04:08:21 22° 102° (ESE) 04:11:10 437.505
CUSAT 1 11 Feb 04:08:24 04:13:52 19° 304° (NW) 04:19:10 437.405
HORYU 2 11 Feb 04:08:54 04:12:49 29° 96° (E) 04:16:43 437.375
STARS 11 Feb 04:11:29 04:15:02 24° 266° (W) 04:18:36 437.465
AUBIESAT-1 11 Feb 04:14:28 04:17:19 23° 102° (ESE) 04:20:16 437.475
AIST 2 11 Feb 04:29:30 04:32:49 24° 245° (WSW) 04:36:07 435.215
MOZHAYETS 4 11 Feb 04:31:39 04:35:17 23° 267° (W) 04:38:58
STRAND 1 11 Feb 04:43:17 04:45:31 13° 54° (NE) 04:47:44 437.568
Gurwin Techsat 1B 11 Feb 04:48:45 04:50:17 11° 309° (NW) 04:51:50 435.225
DANDE 11 Feb 04:50:09 04:55:30 18° 308° (NW) 05:00:53 436.750
Cosmos 2504 11 Feb 04:51:36 05:00:07 65° 92° (E) 05:08:55 435.465 / 435.565
PHONESAT 2.4 11 Feb 05:02:10 05:03:57 14° 201° (SSW) 05:05:44 2401.200-2431.200
Cosmos 2491 11 Feb 05:03:11 05:06:15 12° 291° (WNW) 05:09:19 435.465 / 435.565
CUBESAT XI-V 11 Feb 05:13:37 05:18:18 72° 258° (WSW) 05:23:03 437.345
AO-7 11 Feb 05:19:53 05:28:00 57° 298° (WNW) 05:36:02 29.400- 29.500
ITAMSAT 1 11 Feb 05:21:19 05:22:22 11° 309° (NW) 05:23:27 435.822/435.867
CUTE-I 11 Feb 05:24:43 05:28:10 17° 89° (E) 05:31:36 437.470
SO-50 11 Feb 05:37:47 05:42:43 74° 310° (NW) 05:47:42 436.795
Cubesat XI-IV 11 Feb 05:38:16 05:42:26 22° 92° (E) 05:46:34 437.490
M-CUBED/EXP-1 PRIME 11 Feb 05:40:09 05:43:01 27° 297° (WNW) 05:46:00 437.505
HORYU 2 11 Feb 05:45:26 05:49:24 32° 293° (WNW) 05:53:21 437.375
AUBIESAT-1 11 Feb 05:49:01 05:51:54 26° 297° (WNW) 05:54:54 437.475
BRITE-PL 11 Feb 05:49:15 05:51:40 14° 86° (E) 05:53:59 437.365/2234.400
YUBILEINY 11 Feb 05:56:34 06:02:31 19° 306° (NW) 06:08:30 435.215
STRAND 1 11 Feb 06:18:43 06:23:49 75° 73° (ENE) 06:28:58 437.568
PRISM 11 Feb 06:21:49 06:25:16 26° 65° (ENE) 06:28:45 437.425
O/OREOS (USA 219) 11 Feb 06:41:56 06:43:15 11° 97° (E) 06:44:34 437.305
LilacSat-2 11 Feb 06:43:47 06:47:36 81° 103° (ESE) 06:51:23 437.200
Cosmos 2504 11 Feb 06:46:22 06:54:08 35° 295° (WNW) 07:02:07 435.465 / 435.565
GOMX 1 11 Feb 06:48:38 06:52:20 25° 93° (E) 06:55:51 467.674
CUTE-I 11 Feb 07:03:24 07:08:48 75° 287° (WNW) 07:14:10 437.470
